Home > Weather > Lethbridge > Past weeks

Flag for Canada Weather for the Past 2 Weeks in Lethbridge, Alberta, Canada

Now
48 °F

Clear.


Feels Like: 42 °F
Forecast: 38 / 74 °F
Wind: 18 mph from Southwest

Location: Lethbridge

Current Time: May 2, 2016 at 12:44:50 AM

Latest Report: May 1, 2016 at 11:00 PM


Visibility: 9 mi

Pressure: 30.17 "Hg (27.15 "Hg at 872m altitude)

Humidity: 62%

Dew Point: 36 °F

Location of LethbridgeLocation

Historic Weather in Lethbridge — Graph

°F

Lethbridge Temperature Yesterday

Maximum temperature yesterday: 70 °F (at 5:00 PM)
Minimum temperature yesterday: 32 °F (at 5:00 AM)
Average temperature yesterday: 51 °F

High & Low Weather Summary for the Past Weeks

 TemperatureHumidityPressure
High81 °F (Apr 19, 4:00 PM)100% (Apr 24, 9:00 PM)30.45 "Hg (Apr 24, 9:00 PM)
Low25 °F (Apr 27, 6:00 AM)12% (Apr 18, 3:00 PM)29.75 "Hg (Apr 21, 7:00 PM)
Average48 °F63%30.09 "Hg
* Reported Apr 16 11:00 PM — May 1 11:00 PM, Lethbridge, Weather by CustomWeather, © 2016

Note: Actual official high and low records may vary slightly from our data, if they occured in-between our weather recording intervals... More about our weather records

Advertising

Lethbridge Weather History for the Previous 24 Hours

Scroll right to see more
 ConditionsComfort  
Time TempWeatherWind HumidityBarometerVisibility
11:00 PM
Sun, May 1
48 °FClear.18 mph62%30.17 "Hg9 mi
10:00 PM48 °FPassing clouds.16 mph62%30.18 "Hg15 mi
9:00 PM54 °FPartly sunny.14 mph51%30.17 "Hg40 mi
8:00 PM63 °FPartly sunny.7 mph39%30.16 "Hg40 mi
7:00 PM68 °FScattered clouds.2 mph26%30.18 "Hg40 mi
6:00 PM68 °FPassing clouds.2 mph26%30.19 "Hg40 mi
5:00 PM70 °FPassing clouds.6 mph27%30.20 "Hg40 mi
4:00 PM66 °FPassing clouds.2 mph26%30.22 "Hg40 mi
3:00 PM66 °FPassing clouds.12 mph28%30.24 "Hg40 mi
2:00 PM64 °FPassing clouds.No wind30%30.27 "Hg40 mi
1:00 PM63 °FPassing clouds.6 mph30%30.28 "Hg40 mi
12:00 PM61 °FPassing clouds.6 mph31%30.30 "Hg40 mi
11:00 AM59 °FPassing clouds.9 mph39%30.32 "Hg40 mi
10:00 AM55 °FPassing clouds.9 mph51%30.32 "Hg40 mi
9:00 AM50 °FPassing clouds.7 mph67%30.34 "Hg40 mi
8:00 AM45 °FPassing clouds.8 mph76%30.35 "Hg40 mi
7:00 AM34 °FPassing clouds.6 mph93%30.37 "Hg40 mi
6:00 AM34 °FPassing clouds.5 mph93%30.37 "Hg40 mi
5:00 AM32 °FClear.6 mph93%30.37 "Hg9 mi
4:00 AM34 °FClear.7 mph93%30.37 "Hg9 mi
3:00 AM36 °FClear.15 mph93%30.36 "Hg9 mi
2:00 AM36 °FClear.14 mph93%30.37 "Hg9 mi
1:00 AM39 °FClear.7 mph87%30.37 "Hg9 mi
12:00 AM41 °FClear.7 mph81%30.37 "Hg9 mi
Weather by CustomWeather, © 2016

See weather overviewHow to use our weather pages